TimeCDT,TemperatureF,Dew PointF,Humidity,Sea Level PressureIn,VisibilityMPH,Wind Direction,Wind SpeedMPH,Gust SpeedMPH,PrecipitationIn,Events,Conditions,WindDirDegrees,DateUTC
12:54 AM,35.1,21.9,59,30.33,10.0,West,4.6,-,N/A,,Overcast,280,2013-03-27 05:54:00
1:54 AM,34.0,21.0,59,30.35,10.0,West,6.9,-,N/A,,Overcast,280,2013-03-27 06:54:00
2:54 AM,33.1,23.0,66,30.34,10.0,WNW,4.6,-,N/A,,Overcast,290,2013-03-27 07:54:00
3:54 AM,33.1,23.0,66,30.33,10.0,WNW,5.8,-,N/A,,Mostly Cloudy,300,2013-03-27 08:54:00
4:54 AM,30.9,24.1,76,30.33,10.0,West,5.8,-,N/A,,Mostly Cloudy,280,2013-03-27 09:54:00
5:54 AM,30.0,24.1,79,30.35,10.0,WNW,4.6,-,N/A,,Clear,290,2013-03-27 10:54:00
6:54 AM,30.0,23.0,75,30.36,10.0,WNW,5.8,-,N/A,,Clear,300,2013-03-27 11:54:00
7:54 AM,30.9,24.1,76,30.37,10.0,WNW,3.5,-,N/A,,Clear,300,2013-03-27 12:54:00
8:54 AM,33.1,24.1,70,30.37,10.0,NW,5.8,-,N/A,,Clear,310,2013-03-27 13:54:00
9:54 AM,36.0,23.0,59,30.38,10.0,WNW,5.8,-,N/A,,Clear,290,2013-03-27 14:54:00
10:54 AM,39.0,21.0,49,30.39,10.0,Variable,5.8,-,N/A,,Clear,0,2013-03-27 15:54:00
11:54 AM,39.9,21.0,47,30.39,10.0,West,11.5,-,N/A,,Clear,270,2013-03-27 16:54:00
12:54 PM,39.9,19.0,43,30.38,10.0,NW,6.9,-,N/A,,Clear,320,2013-03-27 17:54:00
1:54 PM,41.0,21.0,45,30.37,10.0,West,8.1,-,N/A,,Partly Cloudy,260,2013-03-27 18:54:00
2:54 PM,42.1,21.9,45,30.35,10.0,West,8.1,16.1,N/A,,Partly Cloudy,270,2013-03-27 19:54:00
3:54 PM,42.1,21.9,45,30.34,10.0,West,4.6,-,N/A,,Clear,260,2013-03-27 20:54:00
4:54 PM,42.1,23.0,47,30.33,10.0,North,-9999.0,-,N/A,,Clear,0,2013-03-27 21:54:00
5:54 PM,42.1,21.9,45,30.33,10.0,Variable,4.6,-,N/A,,Clear,0,2013-03-27 22:54:00
6:54 PM,39.9,21.9,49,30.33,10.0,West,5.8,-,N/A,,Clear,270,2013-03-27 23:54:00
7:54 PM,39.0,21.9,50,30.33,10.0,West,3.5,-,N/A,,Clear,270,2013-03-28 00:54:00
8:54 PM,33.1,24.1,70,30.35,10.0,SSW,6.9,-,N/A,,Clear,210,2013-03-28 01:54:00
9:54 PM,33.1,23.0,66,30.36,10.0,SW,5.8,-,N/A,,Clear,220,2013-03-28 02:54:00
10:54 PM,33.1,23.0,66,30.36,10.0,SW,3.5,-,N/A,,Clear,220,2013-03-28 03:54:00
11:54 PM,30.9,23.0,72,30.36,10.0,Calm,Calm,-,N/A,,Clear,0,2013-03-28 04:54:00